Location: Port Huron, MI 48060, USA
(42.9794°N, 82.4282°W)
Time: 19:10:39
(UTC-04:00)

ISS - Visible Passes

Search period start: 26 April 2018 00:00
Search period end: 06 May 2018 00:00
Orbit: 402 x 407 km, 51.6° (Epoch: 27 April)

Date Brightness Start Highest point End Pass type
(mag) Time Alt. Az. Time Alt. Az. Time Alt. Az.
01 May -1.5 05:29:40 10° S 05:31:55 17° SE 05:34:10 10° E visible
03 May -2.9 05:20:55 13° SSW 05:23:31 39° SE 05:26:36 10° ENE visible
04 May -2.0 04:30:39 20° SSE 04:31:19 21° SE 04:33:53 10° E visible
05 May -0.9 03:40:20 10° ESE 03:40:20 10° ESE 03:40:25 10° ESE visible
05 May -3.9 05:12:58 19° WSW 05:15:12 88° NNW 05:18:29 10° ENE visible
